Location: Central Coast NSW, Australia
(33.2407°S, 151.4316°E)
Time: 06:22:00
(UTC+11:00)

Envisat - Pass Details

Date: 29 March 2019
Orbit: 764 x 766 km, 98.1° (Epoch: 19 October)

Event Time Altitude Azimuth Distance (km) Brightness Sun altitude
Rises 06:04:53 0° 68° (ENE) 3,235 7.5 -13.1°
Reaches altitude 10° 06:09:28 10° 107° (ESE) 2,322 6.9 -12.1°
Maximum altitude 06:10:21 10° 117° (ESE) 2,293 6.6 -11.9°
Drops below altitude 10° 06:11:15 10° 127° (SE) 2,326 6.4 -11.8°
Sets 06:15:51 0° 165° (SSE) 3,265 6.5 -10.8°
